When you browse on this site, cookies collect data to enhance your experience and personalize the content and advertising you see.
Visit our Privacy Policy to learn more. By continuing to use the site, you agree to this use of cookies and data.

Hourly Weather Zalazie

Today, 2 July, Thursday

Time Temperature Precipitation Wind Pressure Humidity
00:00 +20°C° 0 mm 3 mps 740 mmHg 86%
01:00 +20°C° 0 mm 3 mps 740 mmHg 86%
02:00 +20°C° 0 mm 3 mps 740 mmHg 87%
03:00 +20°C° 0 mm 3 mps 740 mmHg 88%
04:00 +19°C° 0 mm 3 mps 740 mmHg 88%
05:00 +19°C° 0 mm 3 mps 740 mmHg 89%
06:00 +21°C° 0.2 mm 3 mps 740 mmHg 86%
07:00 +23°C° 0.2 mm 2 mps 740 mmHg 83%
08:00 +25°C° 0 mm 2 mps 740 mmHg 81%
09:00 +26°C° 0.8 mm 2 mps 740 mmHg 77%
10:00 +27°C° 0.8 mm 2 mps 740 mmHg 73%
11:00 +28°C° 0.8 mm 1 mps 740 mmHg 68%
12:00 +28°C° 1 mm 2 mps 740 mmHg 70%
13:00 +27°C° 1 mm 2 mps 740 mmHg 71%
14:00 +27°C° 1 mm 2 mps 740 mmHg 73%
15:00 +26°C° 0.5 mm 2 mps 740 mmHg 78%
16:00 +24°C° 0.5 mm 2 mps 739 mmHg 82%
17:00 +23°C° 0.5 mm 2 mps 739 mmHg 87%
18:00 +23°C° 0.1 mm 2 mps 739 mmHg 88%
19:00 +23°C° 0.1 mm 2 mps 739 mmHg 88%
20:00 +21°C° 0.1 mm 2 mps 739 mmHg 88%
21:00 +21°C° 0 mm 2 mps 739 mmHg 89%
22:00 +21°C° 0 mm 1 mps 739 mmHg 89%
23:00 +21°C° 0 mm 1 mps 739 mmHg 90%

Tomorrow, 3 July, Friday

Time Temperature Precipitation Wind Pressure Humidity
00:00 +21°C° 0 mm 1 mps 739 mmHg 90%
01:00 +21°C° 0 mm 1 mps 739 mmHg 90%
02:00 +18°C° 0 mm 0 mps 739 mmHg 90%
03:00 +18°C° 0 mm 0 mps 739 mmHg 91%
04:00 +18°C° 0 mm 0 mps 739 mmHg 91%
05:00 +20°C° 0 mm 1 mps 738 mmHg 92%
06:00 +19°C° 0 mm 0 mps 739 mmHg 89%
07:00 +20°C° 0 mm 0 mps 739 mmHg 86%
08:00 +21°C° 0 mm 0 mps 739 mmHg 83%
09:00 +24°C° 0.6 mm 1 mps 739 mmHg 81%
10:00 +25°C° 0.6 mm 1 mps 739 mmHg 78%
11:00 +26°C° 0.6 mm 1 mps 739 mmHg 75%
12:00 +26°C° 1.5 mm 3 mps 739 mmHg 77%
13:00 +26°C° 1.5 mm 4 mps 739 mmHg 79%
14:00 +25°C° 1.5 mm 5 mps 739 mmHg 81%
15:00 +25°C° 0.9 mm 5 mps 740 mmHg 82%
16:00 +23°C° 0.9 mm 4 mps 740 mmHg 84%
17:00 +23°C° 0.9 mm 4 mps 740 mmHg 85%
18:00 +22°C° 0.3 mm 4 mps 740 mmHg 87%
19:00 +21°C° 0.3 mm 3 mps 741 mmHg 89%
20:00 +20°C° 0.3 mm 3 mps 741 mmHg 91%
21:00 +20°C° 0 mm 3 mps 741 mmHg 91%
22:00 +19°C° 0 mm 3 mps 742 mmHg 92%
23:00 +19°C° 0 mm 2 mps 742 mmHg 92%

Day after tomorrow, 4 July, Saturday

Time Temperature Precipitation Wind Pressure Humidity
00:00 +18°C° 0 mm 2 mps 742 mmHg 93%
01:00 +18°C° 0 mm 2 mps 742 mmHg 94%
02:00 +17°C° 0 mm 2 mps 743 mmHg 95%
03:00 +17°C° 0 mm 2 mps 743 mmHg 95%
04:00 +16°C° 0 mm 2 mps 743 mmHg 96%
05:00 +16°C° 0 mm 2 mps 743 mmHg 96%
06:00 +17°C° 0 mm 2 mps 743 mmHg 92%
07:00 +18°C° 0 mm 2 mps 744 mmHg 88%
08:00 +19°C° 0 mm 2 mps 744 mmHg 84%
09:00 +21°C° 0 mm 2 mps 744 mmHg 78%
10:00 +23°C° 0 mm 2 mps 744 mmHg 73%
11:00 +24°C° 0 mm 2 mps 744 mmHg 67%
12:00 +24°C° 0 mm 2 mps 744 mmHg 64%
13:00 +25°C° 0 mm 2 mps 744 mmHg 61%
14:00 +25°C° 0 mm 2 mps 744 mmHg 59%
15:00 +25°C° 0 mm 2 mps 743 mmHg 60%
16:00 +25°C° 0 mm 2 mps 743 mmHg 60%
17:00 +25°C° 0 mm 2 mps 743 mmHg 61%
18:00 +24°C° 0 mm 2 mps 743 mmHg 67%
19:00 +23°C° 0 mm 2 mps 743 mmHg 73%
20:00 +21°C° 0 mm 1 mps 743 mmHg 79%
21:00 +20°C° 0 mm 1 mps 743 mmHg 81%
22:00 +19°C° 0 mm 1 mps 744 mmHg 84%
23:00 +18°C° 0 mm 1 mps 744 mmHg 86%

5 July, Sunday

Time Temperature Precipitation Wind Pressure Humidity
00:00 +18°C° 0 mm 1 mps 744 mmHg 87%
01:00 +15°C° 0 mm 0 mps 743 mmHg 87%
02:00 +15°C° 0 mm 0 mps 743 mmHg 88%
03:00 +15°C° 0 mm 0 mps 743 mmHg 89%
04:00 +15°C° 0 mm 0 mps 743 mmHg 89%
05:00 +14°C° 0 mm 0 mps 743 mmHg 90%
06:00 +16°C° 0 mm 0 mps 743 mmHg 85%
07:00 +18°C° 0 mm 0 mps 743 mmHg 81%
08:00 +20°C° 0 mm 0 mps 743 mmHg 77%
09:00 +21°C° 0 mm 0 mps 743 mmHg 72%
10:00 +22°C° 0 mm 0 mps 743 mmHg 67%
11:00 +23°C° 0 mm 0 mps 743 mmHg 62%
12:00 +24°C° 0 mm 0 mps 743 mmHg 60%
13:00 +26°C° 0 mm 1 mps 742 mmHg 58%
14:00 +27°C° 0 mm 1 mps 742 mmHg 56%
15:00 +27°C° 0 mm 1 mps 742 mmHg 56%
16:00 +27°C° 0 mm 1 mps 742 mmHg 57%
17:00 +27°C° 0 mm 1 mps 742 mmHg 57%
18:00 +25°C° 0 mm 1 mps 742 mmHg 62%
19:00 +24°C° 0 mm 1 mps 742 mmHg 67%
20:00 +22°C° 0 mm 1 mps 742 mmHg 72%
21:00 +21°C° 0 mm 1 mps 742 mmHg 73%
22:00 +21°C° 0 mm 1 mps 742 mmHg 74%
23:00 +20°C° 0 mm 1 mps 742 mmHg 75%

6 July, Monday

Time Temperature Precipitation Wind Pressure Humidity
00:00 +19°C° 0 mm 1 mps 742 mmHg 77%
01:00 +19°C° 0 mm 1 mps 741 mmHg 79%
02:00 +19°C° 0 mm 1 mps 741 mmHg 81%
03:00 +18°C° 0 mm 1 mps 741 mmHg 83%
04:00 +18°C° 0 mm 1 mps 741 mmHg 85%
05:00 +18°C° 0 mm 1 mps 741 mmHg 87%
06:00 +19°C° 0 mm 2 mps 741 mmHg 84%
07:00 +20°C° 0 mm 2 mps 741 mmHg 82%
08:00 +23°C° 0 mm 2 mps 741 mmHg 79%
09:00 +24°C° 0 mm 2 mps 741 mmHg 76%
10:00 +25°C° 0 mm 3 mps 741 mmHg 72%
11:00 +27°C° 0 mm 3 mps 741 mmHg 68%
12:00 +27°C° 0 mm 3 mps 741 mmHg 67%
13:00 +28°C° 0 mm 2 mps 740 mmHg 65%
14:00 +28°C° 0 mm 2 mps 740 mmHg 64%
15:00 +28°C° 0 mm 2 mps 740 mmHg 65%
16:00 +28°C° 0 mm 2 mps 739 mmHg 66%
17:00 +28°C° 0 mm 2 mps 739 mmHg 68%
18:00 +27°C° 0.6 mm 1 mps 739 mmHg 73%
19:00 +26°C° 0.6 mm 1 mps 739 mmHg 78%
20:00 +24°C° 0.6 mm 1 mps 739 mmHg 83%
21:00 +24°C° 0.9 mm 1 mps 739 mmHg 84%
22:00 +23°C° 0.9 mm 1 mps 740 mmHg 85%
23:00 +23°C° 0.9 mm 1 mps 740 mmHg 86%

7 July, Tuesday

Time Temperature Precipitation Wind Pressure Humidity
00:00 +22°C° 0.5 mm 1 mps 740 mmHg 88%
01:00 +20°C° 0.5 mm 2 mps 740 mmHg 91%
02:00 +20°C° 0.5 mm 2 mps 740 mmHg 93%
03:00 +19°C° 0.1 mm 3 mps 740 mmHg 93%
04:00 +18°C° 0.1 mm 3 mps 740 mmHg 93%
05:00 +18°C° 0.1 mm 3 mps 741 mmHg 93%
06:00 +18°C° 0.1 mm 3 mps 741 mmHg 91%
07:00 +18°C° 0.1 mm 3 mps 742 mmHg 89%
08:00 +18°C° 0.1 mm 3 mps 742 mmHg 87%
09:00 +18°C° 0.1 mm 3 mps 742 mmHg 86%
10:00 +18°C° 0.1 mm 3 mps 743 mmHg 84%
11:00 +18°C° 0.1 mm 3 mps 743 mmHg 83%
12:00 +18°C° 0 mm 3 mps 743 mmHg 82%
13:00 +18°C° 0 mm 3 mps 743 mmHg 82%
14:00 +18°C° 0 mm 3 mps 743 mmHg 81%
15:00 +17°C° 0.1 mm 3 mps 743 mmHg 83%
16:00 +16°C° 0.1 mm 3 mps 743 mmHg 85%
17:00 +14°C° 0.1 mm 3 mps 743 mmHg 88%
18:00 +14°C° 0.7 mm 3 mps 743 mmHg 90%
19:00 +15°C° 0.7 mm 2 mps 743 mmHg 93%
20:00 +14°C° 0.7 mm 2 mps 743 mmHg 96%
21:00 +14°C° 1.1 mm 2 mps 743 mmHg 95%
22:00 +14°C° 1.1 mm 2 mps 744 mmHg 95%
23:00 +13°C° 1.1 mm 2 mps 744 mmHg 94%
Show more